Wind_Speed
46 46 46 45 42 39 38 35 32 30 28 25 22 19 18 17 16 15 13 10 9 9 11 11 12 13 15 17 20 21 21 24 25 26 28 29 33 38 39 43 45 44 43 45 47 46 44
42 43 42 41 38 35 34 32 28 26 24 21 19 17 15 14 13 12 11 10 10 9 9 10 10 11 13 17 20 21 22 24 26 26 27 30 34 37 40 43 45 46 43 44 46 45 44
38 38 37 36 34 33 30 28 26 23 22 18 16 15 13 12 12 11 9 8 7 6 6 6 8 11 15 18 20 23 24 25 26 27 30 32 34 37 39 43 46 50 47 45 46 45 47
35 35 33 33 31 29 27 23 22 20 19 18 16 14 11 11 10 9 6 4 3 2 2 4 8 12 15 19 22 24 26 27 28 31 32 34 35 37 40 43 47 51 52 50 47 45 49
32 33 30 29 28 25 23 20 19 18 18 17 15 13 11 10 7 5 4 2 1 2 4 7 11 14 16 21 24 26 27 28 30 31 33 36 36 39 42 44 48 52 53 55 51 47 50
29 28 28 27 25 22 20 17 17 15 16 14 13 12 11 10 8 6 5 4 4 5 7 9 12 16 20 23 26 28 30 31 33 34 36 39 40 42 44 47 50 52 55 56 56 52 52
26 27 25 23 20 19 17 16 16 14 13 12 13 12 11 10 9 9 8 10 11 12 14 15 16 18 21 25 28 31 33 36 37 40 41 43 43 44 45 48 51 53 55 57 55 53 55
26 26 25 22 20 19 17 15 15 14 14 14 14 12 10 10 11 12 13 14 16 18 19 19 21 23 25 29 31 32 35 38 40 43 44 47 47 47 48 50 52 56 57 59 57 54 56
27 27 26 24 21 20 19 18 17 16 16 15 15 14 13 13 14 16 16 17 19 20 21 22 25 27 29 32 34 36 38 41 43 45 47 49 50 51 52 53 54 55 57 60 58 59 61
29 28 27 27 26 26 24 22 21 21 21 21 20 20 19 18 18 19 20 20 20 21 25 27 29 31 34 36 38 40 41 43 47 49 50 52 53 54 54 55 57 59 60 60 58 59 64
32 32 32 30 30 28 29 27 25 24 24 24 25 26 25 24 24 24 25 24 25 26 29 31 34 36 38 40 41 42 44 47 50 52 54 54 55 56 56 56 59 60 59 59 56 60 66
35 35 34 35 34 33 33 32 31 30 28 28 28 28 29 29 28 27 28 29 30 31 34 36 38 40 41 42 44 46 49 51 53 55 57 58 58 58 58 59 62 60 57 57 57 59 62
40 39 37 37 38 37 38 37 35 34 33 33 33 32 32 32 32 32 32 32 34 36 38 40 42 44 46 46 48 50 53 56 57 57 59 60 61 62 64 64 63 61 61 60 61 61 63
46 44 42 41 41 42 42 41 40 39 38 36 35 36 36 36 36 37 37 38 39 41 43 44 46 48 50 51 53 55 57 59 61 60 60 63 66 68 68 66 60 62 69 70 72 71 67
52 50 48 46 45 46 46 45 44 43 42 41 40 40 40 41 41 42 43 44 44 46 49 50 51 51 55 57 58 60 63 63 63 64 65 64 67 69 67 65 64 67 72 75 78 77 72
58 55 53 51 51 50 49 50 49 48 47 47 46 46 45 46 46 47 48 48 50 53 53 54 56 57 59 61 62 63 65 65 65 68 69 67 63 67 67 65 71 75 78 82 86 86 79
64 62 60 58 57 55 53 52 51 51 52 52 52 52 52 52 52 53 53 55 57 58 59 59 61 61 62 63 65 66 69 70 71 72 72 69 66 67 66 70 75 78 81 85 88 86 87
70 68 67 67 66 63 61 60 59 57 57 56 57 57 59 59 59 59 60 60 61 63 64 64 66 68 69 70 68 71 74 77 74 74 69 70 68 62 68 75 79 80 86 90 90 87 85
75 74 73 72 71 68 67 66 65 65 64 63 62 64 64 64 65 65 65 67 67 68 70 69 70 72 74 74 74 74 77 77 76 77 74 71 66 69 72 79 83 84 90 93 89 87 89
78 74 74 76 76 73 73 72 71 70 70 69 68 69 70 71 70 70 71 71 73 73 73 75 75 76 77 78 81 79 78 77 76 75 72 72 72 79 80 82 88 87 91 91 95 97 99
78 77 75 74 74 75 75 75 75 76 75 74 74 73 73 74 76 76 75 75 77 77 77 80 80 80 81 81 81 80 76 71 71 75 79 82 81 84 82 89 92 88 91 96 99 100 108
78 81 81 80 79 80 79 80 80 79 80 81 80 80 79 79 80 80 82 80 81 84 84 79 81 85 83 76 73 67 72 76 76 79 83 87 89 92 86 95 92 83 94 99 102 105 112
74 79 84 84 84 84 84 84 84 83 84 83 83 84 83 78 82 85 86 86 85 84 83 83 80 74 75 77 77 80 81 82 83 84 87 91 95 100 96 97 95 95 100 101 104 108 117
77 77 76 79 80 77 76 75 77 84 87 89 89 88 87 86 86 87 85 85 84 82 76 73 75 78 80 83 86 86 87 88 90 92 98 100 100 105 104 104 101 104 111 112 115 116 121
87 85 84 84 83 83 84 82 81 80 81 80 81 82 80 76 75 78 77 76 78 79 80 81 84 86 86 90 94 93 94 96 98 99 103 105 110 111 109 112 113 107 114 119 123 121 126
96 92 92 91 91 90 90 89 89 89 88 87 88 89 88 83 81 86 85 85 85 87 88 90 92 94 96 99 101 103 102 101 102 101 103 105 107 106 110 115 119 118 121 123 127 126 131
104 101 99 99 98 98 96 95 97 98 98 96 95 95 95 91 90 92 90 90 92 93 94 97 99 101 104 105 108 108 109 110 110 109 110 114 114 113 117 122 124 126 128 130 132 135 137
108 108 107 106 105 104 103 103 104 105 104 105 101 102 103 101 96 96 98 98 100 102 103 101 103 105 109 110 113 114 116 114 114 113 116 116 119 121 125 129 130 131 134 137 138 138 142
115 112 110 111 113 111 110 109 108 108 110 111 108 109 111 111 104 100 100 105 106 108 111 111 110 112 115 116 117 118 116 116 118 120 117 121 122 126 131 135 138 139 139 141 141 144 144
Wind_Direction
127 128 130 134 136 137 136 135 136 135 133 132 132 132 131 132 137 138 136 132 111 90 80 69 59 47 36 29 26 22 19 16 16 14 12 10 7 6 7 5 5 5 2 358 357 358 357
132 133 136 139 140 139 137 138 137 137 137 137 137 136 134 136 139 139 141 131 102 93 77 57 44 28 19 18 18 13 9 9 9 10 7 4 3 5 4 2 3 3 2 360 357 355 353
138 139 142 143 143 144 144 144 144 144 144 145 143 142 137 131 132 135 127 107 100 85 62 34 16 11 13 12 7 5 4 2 1 1 359 358 357 360 360 360 359 1 358 355 354 351 350
146 148 148 150 151 153 152 150 149 149 149 149 149 148 151 148 142 132 129 129 119 81 13 355 0 2 3 360 357 357 355 354 353 353 353 352 350 352 353 353 354 355 355 353 352 350 352
154 158 159 159 160 162 160 158 159 162 159 158 155 159 157 151 152 162 173 178 238 286 321 339 343 347 348 350 349 347 347 346 346 346 345 344 344 346 346 347 347 347 349 350 348 347 345
163 167 168 169 169 169 169 170 169 170 173 169 170 173 180 184 196 217 229 253 269 297 297 308 327 333 339 339 341 340 339 338 339 340 339 339 340 342 341 341 341 343 344 344 344 343 341
174 176 178 180 182 183 182 183 184 185 189 191 195 200 204 216 224 244 262 266 279 292 296 307 317 323 326 330 332 332 332 332 334 336 336 336 336 336 336 336 337 340 339 339 341 342 340
184 188 192 194 197 198 204 206 207 206 209 213 219 218 229 244 254 259 264 273 281 289 296 303 310 315 320 322 324 324 325 328 330 332 332 333 332 333 331 333 335 335 335 335 335 337 338
197 199 204 207 210 211 215 219 221 225 231 237 238 241 250 258 262 268 275 282 287 289 291 299 307 309 309 315 318 320 323 325 326 328 330 329 330 328 328 330 330 330 330 331 332 334 337
206 209 212 217 219 221 224 228 229 235 238 239 245 249 255 266 270 274 276 283 288 291 293 299 301 303 307 312 316 318 320 321 323 325 325 325 326 327 326 326 327 327 328 329 331 334 334
215 217 219 222 224 226 226 231 235 239 243 246 248 251 256 263 267 271 276 280 280 284 287 298 300 304 306 310 312 314 315 319 321 321 322 322 323 324 324 323 322 323 325 328 330 331 331
223 226 227 228 230 232 234 237 240 242 247 250 253 253 255 259 263 268 273 276 279 284 290 294 297 301 305 305 307 309 313 316 319 319 320 320 319 318 318 319 320 320 322 325 327 329 330
230 231 232 234 234 236 237 238 241 246 249 252 255 257 258 262 265 270 272 274 280 286 289 292 295 298 300 302 305 309 312 314 315 315 316 316 316 317 317 318 319 318 320 319 322 325 323
232 235 237 239 239 240 241 242 244 249 252 256 258 261 264 266 268 270 273 278 282 286 288 291 291 295 298 300 304 308 310 310 313 313 312 313 314 316 317 316 316 315 316 315 317 319 321
236 237 239 241 244 244 245 246 247 250 253 255 258 262 265 267 269 272 276 279 284 287 287 288 290 295 299 303 305 306 307 307 309 309 308 310 315 314 314 315 314 313 313 315 315 318 320
239 241 242 244 247 249 250 251 251 253 256 258 261 264 265 268 271 273 275 279 280 281 285 288 290 294 300 302 303 304 305 304 305 306 306 309 312 310 311 314 313 314 313 315 315 314 316
241 243 245 247 249 252 255 256 258 259 262 264 265 268 270 272 274 275 277 278 281 284 287 290 294 297 299 299 300 301 301 301 302 303 305 306 308 309 310 312 311 313 313 315 315 315 314
241 243 246 249 251 253 256 258 259 262 265 267 269 271 272 273 274 278 279 281 284 286 289 290 292 294 296 296 297 299 299 299 303 303 304 303 306 304 308 310 312 314 313 313 310 314 316
242 243 245 248 252 254 256 257 260 263 265 265 266 269 271 272 275 276 278 281 284 284 285 288 290 290 291 293 295 296 297 300 301 302 303 302 304 303 308 305 307 311 310 311 307 308 312
245 245 248 249 251 253 256 258 260 262 263 264 265 267 269 270 272 274 276 279 281 282 284 285 288 289 291 293 294 295 296 298 300 301 303 302 303 303 307 304 307 311 312 309 311 317 316
244 247 248 251 254 253 255 257 259 261 262 264 265 267 268 269 271 274 277 278 280 281 284 287 287 287 290 292 291 294 296 298 299 301 302 301 301 301 303 306 307 312 312 311 313 317 318
248 247 246 248 250 252 254 257 258 261 262 262 265 268 269 271 273 275 276 276 278 282 284 284 285 287 290 292 292 293 295 297 298 299 299 300 301 300 304 305 309 312 309 312 314 316 315
254 252 249 249 251 253 255 259 261 261 263 266 268 269 269 272 275 278 277 279 279 283 283 284 286 287 290 292 294 295 296 298 298 299 298 302 302 301 306 303 304 308 311 311 314 315 314
253 255 255 256 256 256 260 263 265 264 265 266 268 269 270 271 273 273 274 277 281 283 284 283 285 286 288 290 293 294 294 296 297 297 299 301 301 303 305 304 304 308 307 310 311 311 313
253 253 254 256 257 260 260 262 265 264 265 267 268 269 271 274 275 276 278 279 280 281 284 283 284 286 286 289 291 290 290 293 295 296 298 301 303 304 303 304 306 308 306 307 309 312 311
254 252 253 255 255 259 261 261 265 267 269 269 270 272 274 274 276 277 279 280 281 282 284 284 284 285 286 289 290 292 292 292 293 295 297 299 300 302 303 302 305 308 309 308 307 309 308
254 255 255 256 258 259 260 260 262 265 267 268 268 270 271 273 274 274 276 277 279 282 283 284 286 287 289 290 292 292 293 295 295 295 297 296 299 300 300 303 305 306 306 306 305 306 307
254 254 256 257 259 259 261 262 263 266 267 268 271 272 273 273 272 274 275 278 279 280 281 282 284 285 286 287 289 292 294 295 297 295 295 296 299 299 298 300 302 302 302 303 305 304 305
261 259 258 258 257 258 260 261 263 265 266 269 270 271 273 274 275 276 277 279 280 281 282 283 284 285 287 288 289 290 292 296 292 295 296 295 298 299 300 300 300 301 301 302 302 303 305
Height
10773 10777 10781 10785 10790 10794 10797 10801 10805 10808 10811 10813 10816 10818 10819 10820 10822 10823 10823 10824 10824 10825 10825 10824 10823 10822 10822 10821 10819 10816 10814 10811 10808 10806 10802 10798 10795 10790 10786 10783 10779 10774 10768 10762 10756 10751 10744
10780 10783 10786 10790 10794 10798 10801 10805 10808 10811 10813 10816 10818 10819 10820 10821 10822 10824 10825 10825 10825 10826 10826 10825 10824 10823 10822 10821 10818 10816 10813 10810 10807 10804 10800 10797 10793 10789 10786 10782 10777 10772 10767 10761 10754 10749 10743
10785 10788 10791 10794 10798 10801 10804 10807 10810 10813 10815 10817 10819 10820 10821 10823 10824 10825 10826 10826 10827 10827 10826 10826 10825 10824 10822 10820 10817 10815 10812 10809 10806 10802 10798 10795 10791 10788 10784 10779 10774 10770 10764 10759 10753 10745 10739
10789 10792 10795 10798 10801 10803 10806 10809 10812 10814 10817 10819 10820 10821 10823 10825 10826 10826 10826 10827 10827 10826 10826 10826 10825 10823 10821 10819 10816 10813 10811 10807 10803 10799 10795 10792 10788 10784 10780 10775 10771 10765 10761 10755 10750 10742 10735
10792 10795 10798 10801 10803 10806 10808 10811 10813 10816 10818 10820 10821 10823 10824 10825 10825 10826 10826 10826 10826 10825 10825 10824 10823 10821 10819 10816 10814 10811 10808 10804 10800 10796 10793 10788 10784 10780 10776 10771 10766 10761 10756 10750 10744 10737 10729
10794 10797 10800 10803 10806 10808 10810 10813 10815 10816 10819 10821 10823 10824 10825 10825 10826 10826 10826 10825 10824 10824 10823 10822 10821 10819 10816 10814 10811 10808 10804 10801 10798 10793 10789 10785 10781 10777 10772 10766 10761 10756 10750 10745 10738 10732 10725
10796 10799 10802 10805 10808 10810 10813 10815 10817 10818 10820 10821 10823 10824 10824 10825 10825 10825 10824 10824 10824 10823 10821 10819 10818 10816 10813 10811 10807 10804 10801 10798 10794 10790 10786 10782 10778 10773 10768 10762 10756 10751 10745 10738 10734 10726 10717
10797 10800 10803 10805 10808 10811 10813 10815 10817 10819 10820 10821 10822 10822 10823 10823 10823 10823 10823 10822 10820 10820 10818 10816 10814 10811 10808 10806 10804 10800 10797 10794 10791 10786 10782 10777 10773 10768 10763 10757 10751 10744 10738 10731 10725 10722 10715
10795 10798 10801 10804 10806 10809 10811 10813 10815 10817 10818 10819 10820 10821 10821 10821 10820 10820 10819 10818 10817 10816 10814 10812 10810 10808 10805 10802 10799 10796 10793 10790 10786 10782 10777 10773 10767 10761 10756 10749 10744 10740 10733 10726 10718 10708 10704
10792 10794 10798 10800 10803 10805 10807 10809 10811 10812 10813 10814 10815 10816 10816 10816 10816 10815 10815 10814 10812 10811 10809 10808 10805 10803 10800 10798 10795 10792 10789 10785 10780 10776 10771 10766 10760 10754 10748 10742 10735 10729 10724 10717 10710 10702 10692
10787 10790 10793 10796 10798 10800 10802 10804 10805 10806 10807 10809 10810 10810 10810 10810 10810 10810 10810 10809 10808 10806 10804 10802 10800 10797 10794 10792 10789 10786 10782 10779 10774 10768 10763 10758 10752 10746 10740 10733 10727 10722 10717 10710 10703 10695 10683
10783 10786 10788 10790 10792 10794 10796 10798 10799 10800 10801 10803 10804 10804 10804 10804 10803 10803 10803 10802 10801 10800 10798 10796 10793 10790 10788 10785 10781 10778 10774 10770 10766 10760 10755 10749 10743 10737 10730 10724 10717 10711 10706 10702 10694 10688 10680
10778 10780 10782 10784 10785 10787 10789 10791 10792 10794 10795 10796 10797 10797 10797 10798 10797 10796 10796 10795 10794 10793 10791 10788 10785 10783 10779 10776 10773 10769 10766 10761 10757 10753 10745 10739 10731 10726 10718 10712 10705 10698 10693 10690 10688 10682 10672
10769 10773 10776 10777 10778 10780 10782 10784 10785 10787 10788 10789 10789 10789 10790 10790 10790 10789 10788 10787 10786 10784 10781 10780 10777 10774 10771 10768 10764 10760 10756 10752 10747 10741 10737 10729 10718 10712 10706 10700 10695 10686 10677 10671 10669 10670 10665
10761 10763 10767 10769 10771 10772 10774 10776 10777 10778 10779 10780 10781 10781 10781 10781 10781 10780 10779 10778 10777 10775 10771 10769 10767 10765 10760 10757 10754 10750 10744 10740 10736 10730 10724 10720 10711 10699 10693 10687 10680 10677 10665 10657 10648 10649 10645
10752 10755 10757 10760 10761 10763 10765 10767 10769 10770 10771 10772 10772 10772 10772 10772 10772 10771 10770 10768 10766 10762 10761 10759 10756 10755 10751 10746 10743 10738 10732 10728 10723 10717 10711 10708 10705 10687 10680 10675 10665 10657 10648 10640 10631 10623 10625
10741 10744 10747 10749 10750 10753 10756 10758 10760 10760 10761 10762 10762 10762 10762 10762 10762 10760 10759 10756 10754 10752 10750 10748 10745 10742 10738 10735 10730 10725 10718 10714 10710 10703 10697 10692 10690 10679 10668 10662 10653 10645 10633 10623 10611 10601 10593
10728 10732 10734 10736 10737 10741 10745 10745 10748 10749 10750 10751 10751 10751 10750 10749 10749 10748 10747 10745 10743 10740 10736 10735 10732 10728 10725 10720 10719 10712 10703 10695 10696 10688 10685 10676 10675 10668 10658 10646 10638 10632 10619 10608 10592 10588 10579
10712 10716 10720 10723 10724 10729 10730 10732 10734 10736 10737 10738 10738 10738 10737 10737 10737 10735 10734 10732 10729 10726 10722 10722 10718 10713 10709 10706 10702 10698 10689 10683 10676 10670 10667 10661 10659 10651 10648 10635 10625 10623 10609 10591 10576 10574 10570
10699 10702 10706 10710 10711 10714 10715 10716 10718 10720 10721 10722 10723 10723 10723 10722 10722 10722 10720 10718 10713 10710 10709 10705 10703 10698 10694 10692 10683 10683 10677 10671 10662 10653 10647 10641 10641 10629 10627 10617 10606 10607 10593 10569 10556 10553 10541
10683 10687 10690 10693 10696 10698 10700 10700 10701 10703 10703 10705 10706 10708 10708 10708 10706 10705 10704 10704 10698 10693 10694 10691 10690 10680 10678 10676 10666 10664 10657 10653 10647 10639 10630 10620 10620 10612 10611 10597 10589 10592 10570 10550 10540 10534 10513
10666 10670 10671 10675 10677 10679 10682 10683 10685 10686 10687 10687 10688 10689 10693 10693 10691 10689 10686 10685 10681 10676 10677 10674 10670 10663 10659 10654 10650 10650 10641 10635 10632 10623 10612 10603 10595 10588 10600 10572 10569 10578 10551 10539 10529 10519 10498
10651 10654 10656 10658 10660 10663 10664 10665 10667 10668 10670 10671 10670 10671 10674 10680 10674 10670 10666 10662 10663 10660 10660 10654 10650 10647 10642 10635 10634 10630 10623 10619 10610 10605 10593 10586 10574 10560 10569 10553 10552 10553 10537 10522 10514 10503 10481
10635 10638 10641 10643 10645 10646 10648 10648 10649 10651 10652 10651 10650 10651 10653 10659 10655 10648 10646 10646 10643 10640 10641 10635 10630 10627 10624 10619 10615 10612 10604 10599 10592 10587 10576 10567 10553 10542 10535 10526 10527 10522 10507 10495 10487 10482 10461
10614 10619 10622 10625 10627 10629 10631 10630 10630 10631 10632 10633 10630 10632 10635 10641 10638 10626 10628 10631 10627 10622 10621 10620 10611 10608 10605 10600 10595 10591 10589 10582 10574 10569 10556 10544 10531 10518 10507 10496 10493 10503 10477 10463 10452 10456 10438
10592 10596 10599 10603 10606 10608 10609 10611 10611 10611 10612 10614 10611 10610 10613 10621 10622 10608 10610 10607 10607 10603 10602 10597 10594 10589 10583 10577 10569 10562 10561 10559 10558 10554 10544 10529 10517 10502 10489 10474 10467 10462 10455 10444 10432 10432 10418
10569 10573 10577 10580 10583 10586 10588 10589 10589 10589 10588 10589 10593 10589 10590 10598 10601 10594 10593 10591 10586 10583 10582 10576 10569 10566 10559 10551 10544 10539 10535 10532 10528 10525 10517 10505 10493 10483 10467 10451 10448 10435 10424 10416 10405 10396 10391
10545 10549 10553 10556 10558 10561 10564 10566 10566 10565 10563 10562 10573 10568 10563 10568 10580 10578 10572 10571 10567 10561 10557 10557 10551 10547 10535 10530 10520 10513 10510 10508 10501 10496 10485 10475 10462 10457 10442 10426 10421 10415 10398 10389 10380 10367 10355
10513 10521 10524 10529 10533 10535 10537 10539 10541 10539 10539 10539 10548 10543 10537 10535 10552 10559 10556 10546 10542 10537 10531 10529 10525 10519 10513 10506 10497 10489 10489 10483 10476 10468 10460 10446 10440 10429 10415 10398 10389 10381 10373 10361 10350 10338 10325